{"data":{"norad_id":59877,"intl_designator":"2024-098V","name":"STARLINK-31934","alt_names":[],"object_type":"PAYLOAD","status":"ACTIVE","operator":null,"country":"US","launch_date":"2024-05-24","launch_site_code":"AFETR","launch_vehicle":null,"mission":null,"orbit_class":"UNKNOWN","rcs_meters":null,"size_class":null,"mass_kg":null,"dimensions":null,"purposes":["comms"],"wikipedia_slug":null,"has_3d_model":false,"image_url":null,"decayed_at":null,"tle_current":{"epoch":"2026-05-25T05:18:23.882400Z","epoch_age_seconds":49184,"freshness":"FRESH","line1":"1 59877U 24098V   26145.22110975 -.00000077  00000+0  67367-5 0  9992","line2":"2 59877  42.9998 202.0703 0001359 258.8598 101.2101 15.27574017113590","mean_motion":15.27574017,"eccentricity":0.0001359,"inclination_deg":42.9998,"raan_deg":202.0703,"arg_perigee_deg":258.8598,"mean_anomaly_deg":101.2101,"bstar":6.7367e-6,"rev_number":11359,"period_min":94.267117925193,"perigee_km":482.13457372736,"apogee_km":483.99944897764,"semimajor_km":6861.2040113525,"source":"CELESTRAK","updated_at":"2026-05-25T13:38:19.094263Z"}}}